SL-8 DEB, 2647

Orbit data source: Space-Track

SL-8 DEB, 2647 is space debris in LEO originally from a launch on Sat, 18 Sep 1965 UTC launched from the Tyuratam Missile And Space Complex (TTMTR). Debris objects in space refer to the collection of defunct objects orbiting the Earth. Examples of debris include non-operational satellites, rocket bodies, and fragments generated from explosions, collisions, or faulty payload assembly.

Loading next visibility...
Identifier
2647, 1965-073L
Orbit
LEO
Last TLE update
22 hours ago
Origin
Manufacturer
Unknown
Mission
Spacecraft
Bus & Motor
Unknown
Mass
Unknown
Launch date (UTC)
1965-09-18 (60 years ago)
Launch vehicle
Unknown
Launch site
Tyuratam Missile And Space Complex (TTMTR)
Object type
Payload
Rocket body
Debris
Shape & HBR
Unknown
Radar Cross Section
Small (<0.1 m²)

Expand to show TLE details & history

TLE from 22 hours ago
0 SL-8 DEB
1 02647U 65073L   25172.68924696 -.00000141  00000-0 -32372-3 0  9995
2 02647  56.0667  70.4817 0186307 306.6909  68.6405 12.43645090 71782
Epoch: 2025-06-21T16:32Z
TLE epoch observation values (Epoch: 2025-06-21T16:32:30.937Z)
Latitude
14.3172°
Longitude
-77.93358°
Altitude
1,440.526 km
Speed
7.166 km/s
True Right ascension
05h 21m 16s
True Declination
14° 14' 32"
Sunlit
Object was in daylight at epoch
Visualization orbit readout
Latitude
36.38837°
Longitude
60.23023°
Altitude
1,639.943 km
Speed
6.99 km/s
Apparent Right ascension
14h 05m 27s
Apparent Declination
3° 23' 06"
Sunlit
Object is in daylight
Visualization observer readout
Local Sidereal Time
01:27:49
Azimuth
346.452° N
Elevation
-45.845°
Doppler factor
1
Orbital elements
Apogee altitude
1,637.619 km
Perigee altitude
1,344.404 km
Semi-major axis
7,869.148 km
Eccentricity
0.01863
Inclination
56.0667°
RAAN
70.4817°
Arg. of periapsis
306.6909°
True anomaly
Unknown
Mean anomaly
68.6405°
Eccentric anomaly
Unknown
Mean motion
3.10922 °/min
Orbital period
115.78 mins
BSTAR
-0.00032372
Loading maneuver chart data...
Loading SW <> Apogee altitude chart data...
Loading historical data...
Loading historical data...
Loading historical data...
Loading historical data...
Loading historical data...
Loading historical data...
Loading historical data...

SL-8 DEB Visibility forecast

Observer location: undefined°, undefined°

Span
Click to sort rows by Start time (UTC) header in descending order
Start Az.
Max El. time (UTC)
Max El. Az.
Max El.
End time (UTC)
End Az.
12 mins2025-06-22 17:38:12.355Z159.761° S2025-06-22 17:44:12.355Z111.813° ESE22.271°2025-06-22 17:50:12.355Z68.54° E
17 mins2025-06-22 19:36:12.355Z223.854° SW2025-06-22 19:44:12.355Z32.547° NE44.846°2025-06-22 19:53:12.355Z45.656° ENE
15 mins2025-06-22 21:39:12.355Z278.34° WNW2025-06-22 21:46:12.355Z340.232° N31.542°2025-06-22 21:54:12.355Z42.41° NE
15 mins2025-06-22 23:43:12.355Z313.021° NW2025-06-22 23:50:12.355Z8.518° NNE27.087°2025-06-22 23:58:12.355Z65.238° ENE
17 mins2025-06-23 01:45:12.355Z319.773° NNW2025-06-23 01:53:12.355Z27.662° NE38.668°2025-06-23 02:02:12.355Z107.212° ESE
17 mins2025-06-23 03:47:12.355Z305.663° NW2025-06-23 03:55:12.355Z226.63° WSW40.016°2025-06-23 04:04:12.355Z159.211° S
|